SCP
0 0 0 0 0 0 0 0 0 0 0 0 0 0 0 0 0 0 0 1 0 0 0 1 0 1 6 5 2 0 0 0 0 0 0 0 0 0 0 0 0 0 0 0
0 0 0 0 0 0 0 0 0 0 0 0 0 0 0 0 0 0 0 0 1 0 0 0 1 1 4 2 0 0 0 0 0 0 0 0 0 0 0 0 0 0 0 0
0 0 0 0 0 0 0 0 0 0 0 0 0 0 0 0 0 0 0 0 1 1 1 1 1 2 1 1 0 0 0 0 0 0 0 0 0 0 0 0 0 0 0 0
0 0 0 0 0 0 0 0 0 0 0 0 0 0 0 0 0 0 0 0 0 1 1 1 1 1 2 1 0 0 0 0 0 0 0 0 0 0 0 0 0 0 0 0
0 0 0 0 0 0 0 0 0 0 0 0 0 0 0 0 0 0 0 0 0 0 0 1 1 1 1 1 0 0 0 0 0 0 0 0 0 0 0 0 0 0 0 0
0 0 0 0 0 0 0 0 0 0 0 0 0 0 0 0 0 0 0 0 0 0 1 2 1 1 1 0 0 0 0 0 0 0 0 0 0 0 0 0 0 0 0 0
0 0 0 0 0 0 0 0 0 0 0 0 0 0 0 0 0 1 1 1 0 0 1 1 1 2 1 1 0 0 0 0 0 0 0 0 0 0 0 0 0 0 0 0
0 0 0 0 0 0 0 1 0 0 0 0 0 0 0 1 1 0 0 0 0 1 1 1 1 1 1 1 0 0 0 0 0 0 0 0 0 0 0 0 0 0 0 0
0 1 0 0 0 0 0 0 0 0 0 0 0 0 0 0 0 0 0 0 0 0 0 2 1 1 1 0 0 0 0 0 0 0 0 0 0 0 0 0 0 0 0 0
0 1 0 0 0 0 0 0 0 0 0 0 0 0 0 0 0 0 0 0 0 0 0 0 1 1 1 0 0 0 0 0 0 0 0 0 0 0 0 0 0 0 0 0
0 0 0 0 0 0 0 0 0 0 0 0 0 0 0 0 0 0 0 0 0 0 0 0 0 1 1 0 0 0 0 0 0 0 0 0 0 0 0 0 0 0 0 0
0 0 0 0 0 0 0 0 0 0 0 0 0 0 0 0 0 0 0 0 0 0 0 0 0 0 0 0 0 0 0 0 0 0 0 0 0 0 0 0 0 0 0 0
0 0 0 0 0 0 0 0 0 0 0 0 0 0 0 0 0 0 0 0 0 0 0 0 0 0 0 0 0 0 0 0 0 0 0 0 0 0 0 0 0 0 0 0
0 0 0 0 0 0 0 0 0 0 0 0 0 0 0 0 0 0 0 0 0 0 0 0 0 0 0 0 0 0 0 0 0 0 0 0 0 0 0 0 0 0 0 0
0 0 0 0 0 0 0 0 0 0 0 0 0 0 0 0 0 0 0 0 0 0 0 0 0 0 0 0 0 0 0 0 0 0 0 0 0 0 0 0 0 0 0 0
0 0 0 0 0 0 0 0 0 0 0 0 0 0 0 0 0 0 0 0 0 0 0 0 0 0 0 0 0 0 0 0 0 0 0 0 0 0 0 0 0 0 0 0
0 0 0 0 0 0 0 0 0 0 0 0 0 0 0 0 0 0 0 0 0 0 0 0 0 0 0 0 0 0 0 0 0 0 0 0 0 0 0 0 0 0 0 0
0 0 0 0 0 0 0 0 0 0 0 0 0 0 0 0 0 0 0 0 0 0 0 0 0 0 0 0 0 0 0 0 0 0 0 0 0 0 0 0 0 0 0 0
0 0 0 0 0 0 0 0 0 0 0 0 0 0 0 0 0 0 0 0 0 0 0 0 0 0 0 0 0 0 -0 -0 0 0 0 0 0 0 0 0 0 0 0 0
0 0 0 0 0 0 0 0 0 0 0 0 0 0 0 0 0 0 0 0 0 0 0 0 0 0 0 0 0 0 0 0 0 0 0 0 0 0 0 0 0 0 0 0
0 0 0 0 0 0 0 0 0 0 0 0 0 0 0 0 0 0 0 0 0 0 0 0 0 0 0 0 0 0 0 0 0 0 0 0 0 0 0 0 0 0 0 0
0 0 0 0 0 0 0 0 0 0 0 0 0 0 0 0 0 0 0 0 0 0 0 0 0 0 0 0 0 0 0 0 0 0 0 0 0 0 0 0 0 0 0 0
0 0 0 0 0 0 0 0 0 0 0 0 0 0 0 0 0 0 0 0 0 0 0 0 0 0 0 0 0 0 0 0 0 0 0 0 0 0 0 0 0 0 0 0
0 0 0 0 0 0 0 0 -0 0 0 0 0 0 0 0 0 0 0 0 0 0 0 0 0 0 0 0 0 -0 -0 -0 0 0 0 0 0 0 0 0 0 0 0 0
0 0 0 0 0 0 0 -0 -0 -0 -0 0 0 0 0 0 0 0 0 0 0 0 0 0 0 0 0 0 0 0 0 0 0 0 0 0 0 0 0 0 0 0 0 0
0 0 0 0 0 0 0 0 0 -0 -0 -0 -0 0 0 0 0 0 0 0 0 0 0 0 0 0 0 0 0 0 0 0 0 0 0 0 0 0 0 0 0 0 0 0
0 0 0 0 0 -0 0 0 0 -0 -0 -0 -0 -0 -0 -0 -0 -0 0 0 0 0 0 0 0 0 0 0 0 0 0 0 0 0 0 0 0 0 0 0 0 0 0 0
Wind_Speed_500mb
31 33 18 16 25 24 16 17 15 17 22 31 28 28 44 54 48 46 44 37 39 45 61 76 81 92 78 68 77 75 74 62 48 36 30 31 30 22 19 18 19 20 21 24
33 34 23 14 18 17 20 9 9 15 13 20 36 39 41 57 54 47 42 37 31 29 42 67 74 87 78 74 77 75 70 58 43 33 29 35 29 22 21 17 17 20 22 21
35 21 20 10 22 17 12 12 19 14 22 20 13 24 47 66 66 53 40 30 22 14 13 18 34 54 66 70 68 74 68 56 48 36 32 31 26 22 18 17 18 19 19 20
20 6 19 15 16 16 15 15 13 7 13 30 37 36 46 53 58 54 46 37 27 19 16 17 22 32 45 60 75 71 62 52 39 33 31 29 25 19 16 15 16 18 15 19
14 19 9 5 13 15 9 11 6 23 29 49 66 63 27 43 46 46 37 32 26 18 12 11 21 32 47 65 70 65 59 47 35 33 33 24 19 17 15 12 11 13 14 21
6 12 15 18 9 25 15 0 8 54 38 41 49 12 8 48 49 42 31 23 17 9 7 8 13 32 45 60 66 61 54 44 35 31 28 19 14 18 15 13 13 15 21 22
4 4 10 8 18 26 18 18 35 54 66 51 16 29 62 48 42 34 25 17 9 3 8 10 14 29 49 56 59 50 50 38 30 24 20 11 14 17 12 12 17 17 22 27
7 6 5 19 7 18 12 12 57 48 49 66 75 66 59 52 44 31 21 12 8 12 14 17 15 20 34 49 41 42 43 34 17 21 15 10 15 16 19 19 30 28 25 29
11 10 16 39 32 44 52 53 41 77 79 82 80 67 57 47 36 26 16 8 3 7 6 12 19 23 26 42 44 49 45 25 24 45 26 35 31 18 38 31 28 35 29 26
8 12 2 62 73 70 70 73 71 72 71 67 65 50 41 30 25 17 5 2 7 12 14 13 2 25 35 35 35 45 47 38 51 54 42 45 40 39 23 25 29 35 34 26
9 13 28 32 58 82 85 80 80 72 51 53 47 39 34 28 18 10 2 7 15 23 22 17 10 5 13 24 34 42 38 42 52 52 59 46 41 35 48 46 34 30 21 25
8 14 16 6 66 72 74 72 63 66 50 29 29 27 19 16 10 5 1 9 18 15 21 24 23 13 7 13 24 33 34 47 45 35 44 56 48 50 28 28 33 28 20 16
18 54 67 62 63 63 62 48 41 39 28 23 16 9 2 1 1 5 7 7 9 11 18 24 18 16 11 9 19 30 36 46 43 35 49 50 40 23 28 25 23 28 24 14
71 76 51 53 39 38 37 33 27 21 14 12 9 6 6 8 9 10 10 14 13 7 19 16 16 15 12 9 10 17 23 26 30 35 40 31 21 22 23 26 30 34 25 13
45 53 52 45 40 33 27 20 12 9 6 2 4 5 9 10 12 14 16 19 12 11 13 17 13 13 14 13 10 10 11 22 34 31 25 24 19 22 25 27 35 29 26 13
46 40 32 29 23 18 12 7 5 3 8 11 11 6 3 6 9 15 18 19 9 7 10 12 17 16 12 10 13 17 20 17 21 24 25 22 18 22 29 36 40 34 20 18
37 31 29 36 26 23 17 12 9 5 2 8 6 6 4 5 3 19 18 9 4 7 10 16 14 9 13 14 17 15 16 18 16 13 18 18 19 20 27 35 34 23 22 15
31 29 26 22 20 16 16 13 6 1 2 5 7 8 8 4 5 14 10 8 8 7 10 11 10 9 5 1 5 6 11 25 20 18 17 14 9 15 23 31 30 28 26 20
14 16 11 5 3 4 3 6 10 8 10 11 9 9 11 16 13 13 11 13 12 9 12 7 7 5 3 5 3 4 18 16 22 22 14 16 17 22 29 29 34 31 29 26
25 22 19 15 6 5 7 12 14 12 13 18 22 18 15 16 18 18 21 18 14 12 12 6 7 8 6 11 6 6 8 7 10 17 19 17 15 20 25 36 30 33 28 29
25 29 23 14 11 8 8 12 20 11 8 11 14 13 11 17 21 22 20 12 6 5 8 3 1 3 11 11 11 11 12 8 13 22 25 23 30 29 22 25 30 37 35 28
21 17 10 4 4 10 15 11 6 3 4 4 3 6 14 21 20 20 14 8 8 9 11 7 6 11 16 26 25 16 16 17 20 26 30 29 27 26 32 33 32 32 29 23
14 7 5 3 8 13 12 7 3 3 2 12 10 18 15 16 10 10 11 12 12 11 12 13 21 30 36 32 29 30 28 27 28 33 37 36 32 25 23 25 28 27 23 18
9 5 3 22 30 34 32 22 16 10 9 13 15 17 15 11 11 9 1 6 15 17 25 30 29 24 23 21 19 14 22 27 24 19 17 15 16 21 23 22 22 20 13 9
15 24 29 23 24 23 27 33 26 17 15 15 13 18 10 9 2 9 9 22 34 38 32 22 18 19 18 18 17 19 28 18 14 21 29 26 21 17 16 15 14 11 8 5
21 20 18 15 13 12 11 15 25 32 32 20 10 9 6 2 4 19 25 33 37 32 23 19 19 13 12 13 13 13 14 20 18 13 11 12 11 9 6 13 14 8 3 3
19 19 10 3 4 3 3 5 1 8 15 20 23 21 15 17 22 24 23 27 26 23 21 13 14 7 9 12 7 6 12 18 16 14 16 16 15 16 10 14 13 7 4 1
Wind_Direction_500mb
215 214 193 217 219 189 174 186 161 217 176 197 191 172 175 160 152 138 131 149 186 202 209 216 216 210 221 228 229 225 232 234 234 225 234 242 248 261 272 276 280 296 297 317
220 217 190 210 208 232 219 155 174 155 216 202 192 160 160 166 158 146 131 120 127 157 204 218 223 224 231 232 238 230 234 227 215 224 243 244 247 257 268 264 278 288 306 308
215 216 216 208 210 209 231 198 173 175 215 150 151 171 161 149 144 144 145 149 143 142 153 216 238 244 239 242 231 227 226 220 222 233 242 242 247 255 262 267 291 301 305 307
212 123 216 222 177 165 179 237 212 99 139 164 148 146 155 152 147 143 148 146 154 149 169 200 229 240 236 225 217 218 216 217 221 242 234 229 245 254 267 283 297 308 292 307
167 206 236 189 188 149 146 285 244 126 120 119 118 119 116 144 148 145 150 159 156 147 150 204 231 240 237 221 219 216 210 219 242 244 229 232 245 261 262 273 287 293 297 305
82 156 196 226 218 166 114 348 110 135 135 139 134 115 210 137 142 135 138 144 153 169 215 249 253 240 240 228 218 214 224 235 243 226 221 232 259 268 277 273 300 296 300 295
103 132 284 296 284 136 166 215 177 161 159 159 140 154 144 133 125 131 134 130 131 155 259 291 264 256 234 228 221 238 230 231 221 219 220 246 272 266 264 267 292 279 297 289
90 85 255 342 321 159 188 85 146 139 152 127 122 129 134 132 126 127 128 141 175 220 235 250 256 248 247 235 246 241 220 212 223 213 220 254 278 261 276 267 272 276 284 281
178 170 234 69 89 100 106 102 115 130 130 128 123 119 120 118 127 134 157 141 77 47 356 249 234 238 247 239 238 213 200 201 227 210 211 271 234 260 280 255 264 268 278 266
20 355 104 107 106 106 107 105 109 112 117 120 115 121 119 127 130 135 138 334 357 354 359 18 275 237 246 246 251 221 227 234 212 219 256 267 235 260 263 278 272 265 276 263
139 62 53 70 116 121 113 115 117 113 110 111 120 124 134 142 136 144 203 308 314 318 332 3 15 30 262 244 246 245 214 215 219 237 268 243 239 272 271 260 265 279 228 249
178 85 99 98 114 122 118 112 114 115 121 126 116 129 138 130 136 136 298 300 308 321 338 345 342 329 304 262 254 231 242 223 229 261 246 230 252 291 269 247 245 233 231 224
123 136 122 105 96 102 104 106 104 109 123 127 116 94 83 103 8 320 313 264 270 310 342 334 340 336 316 256 243 246 245 232 265 245 239 246 273 271 274 279 230 217 195 212
112 112 88 94 92 97 106 114 120 106 64 47 39 5 319 283 272 269 249 245 253 285 330 319 331 339 331 310 247 244 258 251 254 248 245 263 254 260 262 234 213 190 193 207
112 117 111 112 113 107 112 112 92 57 77 130 211 222 234 247 248 255 254 228 226 292 321 329 325 315 314 293 263 258 269 261 256 252 253 246 257 252 234 201 193 197 195 221
119 122 123 118 123 156 159 104 89 229 236 184 187 184 243 280 267 253 221 196 232 286 322 320 295 286 283 292 286 259 245 254 251 251 244 234 237 233 200 193 199 199 216 190
101 87 97 89 111 104 108 108 105 82 212 235 268 292 315 325 270 174 173 195 234 307 307 307 314 283 286 295 284 266 246 232 218 193 207 217 214 220 203 195 197 191 169 189
104 103 101 110 120 120 92 77 59 278 155 149 196 229 219 205 176 195 205 226 227 237 286 306 305 307 313 250 343 340 213 200 214 214 202 210 200 195 201 190 183 173 170 184
136 137 135 124 89 52 25 298 268 259 252 251 237 207 202 220 234 232 241 219 217 268 294 302 323 345 274 263 322 81 157 191 210 219 210 196 195 204 201 192 169 165 175 179
137 147 151 146 163 242 239 234 238 252 273 274 266 266 254 238 240 237 231 233 256 259 250 261 326 318 236 201 211 181 157 121 162 177 178 176 173 170 160 168 170 183 174 178
132 142 147 165 175 194 215 270 288 288 277 287 280 269 254 221 197 204 221 244 215 214 177 194 346 109 147 177 217 216 173 205 191 172 170 164 149 148 158 178 176 172 178 179
154 157 155 151 295 309 307 291 307 282 283 300 251 194 193 191 213 219 209 204 190 168 161 159 135 120 117 100 96 116 143 149 136 144 145 141 154 163 170 168 175 169 173 175
147 163 154 115 16 64 44 30 75 60 154 117 115 145 165 155 158 188 180 172 168 160 160 149 137 130 123 122 114 110 110 119 111 119 125 134 145 152 162 170 164 166 166 168
168 154 100 111 93 72 63 72 82 97 120 137 147 143 162 162 158 163 176 181 179 155 139 134 140 144 147 150 152 142 142 147 141 164 182 182 174 173 170 174 175 174 190 222
125 117 121 114 93 82 70 61 64 84 108 122 145 157 147 138 318 171 151 139 140 142 138 132 126 144 141 163 177 161 148 155 148 149 159 163 166 172 182 200 214 221 225 254
131 117 115 102 92 91 68 68 68 72 69 76 118 152 181 215 118 146 146 147 151 150 131 111 127 127 136 143 158 167 173 161 163 178 181 165 159 169 203 201 190 197 252 303
134 132 138 115 287 170 234 318 82 118 96 74 71 86 105 123 132 139 147 154 164 174 181 165 155 159 190 166 168 251 209 179 171 176 184 176 180 179 184 199 197 215 213 138
Wind_Speed_850mb
31 33 18 16 25 24 16 17 15 17 22 31 28 28 44 54 48 46 44 37 39 45 61 76 81 92 78 68 77 75 74 62 48 36 30 31 30 22 19 18 19 20 21 24
33 34 23 14 18 17 20 9 9 15 13 20 36 39 41 57 54 47 42 37 31 29 42 67 74 87 78 74 77 75 70 58 43 33 29 35 29 22 21 17 17 20 22 21
35 21 20 10 22 17 12 12 19 14 22 20 13 24 47 66 66 53 40 30 22 14 13 18 34 54 66 70 68 74 68 56 48 36 32 31 26 22 18 17 18 19 19 20
20 6 19 15 16 16 15 15 13 7 13 30 37 36 46 53 58 54 46 37 27 19 16 17 22 32 45 60 75 71 62 52 39 33 31 29 25 19 16 15 16 18 15 19
14 19 9 5 13 15 9 11 6 23 29 49 66 63 27 43 46 46 37 32 26 18 12 11 21 32 47 65 70 65 59 47 35 33 33 24 19 17 15 12 11 13 14 21
6 12 15 18 9 25 15 0 8 54 38 41 49 12 8 48 49 42 31 23 17 9 7 8 13 32 45 60 66 61 54 44 35 31 28 19 14 18 15 13 13 15 21 22
4 4 10 8 18 26 18 18 35 54 66 51 16 29 62 48 42 34 25 17 9 3 8 10 14 29 49 56 59 50 50 38 30 24 20 11 14 17 12 12 17 17 22 27
7 6 5 19 7 18 12 12 57 48 49 66 75 66 59 52 44 31 21 12 8 12 14 17 15 20 34 49 41 42 43 34 17 21 15 10 15 16 19 19 30 28 25 29
11 10 16 39 32 44 52 53 41 77 79 82 80 67 57 47 36 26 16 8 3 7 6 12 19 23 26 42 44 49 45 25 24 45 26 35 31 18 38 31 28 35 29 26
8 12 2 62 73 70 70 73 71 72 71 67 65 50 41 30 25 17 5 2 7 12 14 13 2 25 35 35 35 45 47 38 51 54 42 45 40 39 23 25 29 35 34 26
9 13 28 32 58 82 85 80 80 72 51 53 47 39 34 28 18 10 2 7 15 23 22 17 10 5 13 24 34 42 38 42 52 52 59 46 41 35 48 46 34 30 21 25
8 14 16 6 66 72 74 72 63 66 50 29 29 27 19 16 10 5 1 9 18 15 21 24 23 13 7 13 24 33 34 47 45 35 44 56 48 50 28 28 33 28 20 16
18 54 67 62 63 63 62 48 41 39 28 23 16 9 2 1 1 5 7 7 9 11 18 24 18 16 11 9 19 30 36 46 43 35 49 50 40 23 28 25 23 28 24 14
71 76 51 53 39 38 37 33 27 21 14 12 9 6 6 8 9 10 10 14 13 7 19 16 16 15 12 9 10 17 23 26 30 35 40 31 21 22 23 26 30 34 25 13
45 53 52 45 40 33 27 20 12 9 6 2 4 5 9 10 12 14 16 19 12 11 13 17 13 13 14 13 10 10 11 22 34 31 25 24 19 22 25 27 35 29 26 13
46 40 32 29 23 18 12 7 5 3 8 11 11 6 3 6 9 15 18 19 9 7 10 12 17 16 12 10 13 17 20 17 21 24 25 22 18 22 29 36 40 34 20 18
37 31 29 36 26 23 17 12 9 5 2 8 6 6 4 5 3 19 18 9 4 7 10 16 14 9 13 14 17 15 16 18 16 13 18 18 19 20 27 35 34 23 22 15
31 29 26 22 20 16 16 13 6 1 2 5 7 8 8 4 5 14 10 8 8 7 10 11 10 9 5 1 5 6 11 25 20 18 17 14 9 15 23 31 30 28 26 20
14 16 11 5 3 4 3 6 10 8 10 11 9 9 11 16 13 13 11 13 12 9 12 7 7 5 3 5 3 4 18 16 22 22 14 16 17 22 29 29 34 31 29 26
25 22 19 15 6 5 7 12 14 12 13 18 22 18 15 16 18 18 21 18 14 12 12 6 7 8 6 11 6 6 8 7 10 17 19 17 15 20 25 36 30 33 28 29
25 29 23 14 11 8 8 12 20 11 8 11 14 13 11 17 21 22 20 12 6 5 8 3 1 3 11 11 11 11 12 8 13 22 25 23 30 29 22 25 30 37 35 28
21 17 10 4 4 10 15 11 6 3 4 4 3 6 14 21 20 20 14 8 8 9 11 7 6 11 16 26 25 16 16 17 20 26 30 29 27 26 32 33 32 32 29 23
14 7 5 3 8 13 12 7 3 3 2 12 10 18 15 16 10 10 11 12 12 11 12 13 21 30 36 32 29 30 28 27 28 33 37 36 32 25 23 25 28 27 23 18
9 5 3 22 30 34 32 22 16 10 9 13 15 17 15 11 11 9 1 6 15 17 25 30 29 24 23 21 19 14 22 27 24 19 17 15 16 21 23 22 22 20 13 9
15 24 29 23 24 23 27 33 26 17 15 15 13 18 10 9 2 9 9 22 34 38 32 22 18 19 18 18 17 19 28 18 14 21 29 26 21 17 16 15 14 11 8 5
21 20 18 15 13 12 11 15 25 32 32 20 10 9 6 2 4 19 25 33 37 32 23 19 19 13 12 13 13 13 14 20 18 13 11 12 11 9 6 13 14 8 3 3
19 19 10 3 4 3 3 5 1 8 15 20 23 21 15 17 22 24 23 27 26 23 21 13 14 7 9 12 7 6 12 18 16 14 16 16 15 16 10 14 13 7 4 1
Wind_Direction_850mb
215 214 193 217 219 189 174 186 161 217 176 197 191 172 175 160 152 138 131 149 186 202 209 216 216 210 221 228 229 225 232 234 234 225 234 242 248 261 272 276 280 296 297 317
220 217 190 210 208 232 219 155 174 155 216 202 192 160 160 166 158 146 131 120 127 157 204 218 223 224 231 232 238 230 234 227 215 224 243 244 247 257 268 264 278 288 306 308
215 216 216 208 210 209 231 198 173 175 215 150 151 171 161 149 144 144 145 149 143 142 153 216 238 244 239 242 231 227 226 220 222 233 242 242 247 255 262 267 291 301 305 307
212 123 216 222 177 165 179 237 212 99 139 164 148 146 155 152 147 143 148 146 154 149 169 200 229 240 236 225 217 218 216 217 221 242 234 229 245 254 267 283 297 308 292 307
167 206 236 189 188 149 146 285 244 126 120 119 118 119 116 144 148 145 150 159 156 147 150 204 231 240 237 221 219 216 210 219 242 244 229 232 245 261 262 273 287 293 297 305
82 156 196 226 218 166 114 348 110 135 135 139 134 115 210 137 142 135 138 144 153 169 215 249 253 240 240 228 218 214 224 235 243 226 221 232 259 268 277 273 300 296 300 295
103 132 284 296 284 136 166 215 177 161 159 159 140 154 144 133 125 131 134 130 131 155 259 291 264 256 234 228 221 238 230 231 221 219 220 246 272 266 264 267 292 279 297 289
90 85 255 342 321 159 188 85 146 139 152 127 122 129 134 132 126 127 128 141 175 220 235 250 256 248 247 235 246 241 220 212 223 213 220 254 278 261 276 267 272 276 284 281
178 170 234 69 89 100 106 102 115 130 130 128 123 119 120 118 127 134 157 141 77 47 356 249 234 238 247 239 238 213 200 201 227 210 211 271 234 260 280 255 264 268 278 266
20 355 104 107 106 106 107 105 109 112 117 120 115 121 119 127 130 135 138 334 357 354 359 18 275 237 246 246 251 221 227 234 212 219 256 267 235 260 263 278 272 265 276 263
139 62 53 70 116 121 113 115 117 113 110 111 120 124 134 142 136 144 203 308 314 318 332 3 15 30 262 244 246 245 214 215 219 237 268 243 239 272 271 260 265 279 228 249
178 85 99 98 114 122 118 112 114 115 121 126 116 129 138 130 136 136 298 300 308 321 338 345 342 329 304 262 254 231 242 223 229 261 246 230 252 291 269 247 245 233 231 224
123 136 122 105 96 102 104 106 104 109 123 127 116 94 83 103 8 320 313 264 270 310 342 334 340 336 316 256 243 246 245 232 265 245 239 246 273 271 274 279 230 217 195 212
112 112 88 94 92 97 106 114 120 106 64 47 39 5 319 283 272 269 249 245 253 285 330 319 331 339 331 310 247 244 258 251 254 248 245 263 254 260 262 234 213 190 193 207
112 117 111 112 113 107 112 112 92 57 77 130 211 222 234 247 248 255 254 228 226 292 321 329 325 315 314 293 263 258 269 261 256 252 253 246 257 252 234 201 193 197 195 221
119 122 123 118 123 156 159 104 89 229 236 184 187 184 243 280 267 253 221 196 232 286 322 320 295 286 283 292 286 259 245 254 251 251 244 234 237 233 200 193 199 199 216 190
101 87 97 89 111 104 108 108 105 82 212 235 268 292 315 325 270 174 173 195 234 307 307 307 314 283 286 295 284 266 246 232 218 193 207 217 214 220 203 195 197 191 169 189
104 103 101 110 120 120 92 77 59 278 155 149 196 229 219 205 176 195 205 226 227 237 286 306 305 307 313 250 343 340 213 200 214 214 202 210 200 195 201 190 183 173 170 184
136 137 135 124 89 52 25 298 268 259 252 251 237 207 202 220 234 232 241 219 217 268 294 302 323 345 274 263 322 81 157 191 210 219 210 196 195 204 201 192 169 165 175 179
137 147 151 146 163 242 239 234 238 252 273 274 266 266 254 238 240 237 231 233 256 259 250 261 326 318 236 201 211 181 157 121 162 177 178 176 173 170 160 168 170 183 174 178
132 142 147 165 175 194 215 270 288 288 277 287 280 269 254 221 197 204 221 244 215 214 177 194 346 109 147 177 217 216 173 205 191 172 170 164 149 148 158 178 176 172 178 179
154 157 155 151 295 309 307 291 307 282 283 300 251 194 193 191 213 219 209 204 190 168 161 159 135 120 117 100 96 116 143 149 136 144 145 141 154 163 170 168 175 169 173 175
147 163 154 115 16 64 44 30 75 60 154 117 115 145 165 155 158 188 180 172 168 160 160 149 137 130 123 122 114 110 110 119 111 119 125 134 145 152 162 170 164 166 166 168
168 154 100 111 93 72 63 72 82 97 120 137 147 143 162 162 158 163 176 181 179 155 139 134 140 144 147 150 152 142 142 147 141 164 182 182 174 173 170 174 175 174 190 222
125 117 121 114 93 82 70 61 64 84 108 122 145 157 147 138 318 171 151 139 140 142 138 132 126 144 141 163 177 161 148 155 148 149 159 163 166 172 182 200 214 221 225 254
131 117 115 102 92 91 68 68 68 72 69 76 118 152 181 215 118 146 146 147 151 150 131 111 127 127 136 143 158 167 173 161 163 178 181 165 159 169 203 201 190 197 252 303
134 132 138 115 287 170 234 318 82 118 96 74 71 86 105 123 132 139 147 154 164 174 181 165 155 159 190 166 168 251 209 179 171 176 184 176 180 179 184 199 197 215 213 138